Terug naar catalogus

KUIPER-00622

ActiefCommunicatieLEO
NORAD 69779·PAYLOAD·🇺🇸 United States

Gelanceerd Jul 2, 2026 vanaf Cape Canaveral Space Force Station

Loading…

Volgende Passages (komende 24 uur)

TLE

VersSource: CelesTrak SupGP

Epoch: Sep 14, 2026, 21:55 UTC

1 69779C 26151S   26257.91387732  .00001808  00000+0  25625-3 0  2571
2 69779  51.8990 257.7350 0001056  67.9984 161.4009 14.76557424    13

Volg KUIPER-00622 in realtime met AllMySat

Download on the App Store